Tracking 18840 objects as of 19-November-2017
HD Live streaming from Space Station
objects crossing your sky now

FENGYUN 1C DEB

Track FENGYUN 1C DEB now!
10-day predictions


NORAD ID: 30246
Int'l Code: 1999-025XF
Perigee: 853.0 km
Apogee: 1,412.6 km
Inclination: 98.6 °
Period: 107.8 minutes
Semi major axis: 7503 km
RCS: 0.0544 m2 (small)
Launch date: May 10, 1999
Source: People's Republic of China (PRC)
Launch site: Taiyaun Space Center, China (TSC)

Note: This is SATELLITE DEBRIS
aabbcc
Your satellite tracking list
Your tracking list is empty




NASA's NSSDC Master Catalog

Two Line Element Set (TLE):
1 30246U 99025XF  17322.46074590 +.00000042 +00000-0 +10565-3 0  9996
2 30246 098.6482 136.9722 0372912 289.3570 120.8133 13.35616456527970
Source of the keplerian elements: AFSPC